FENGYUN 1C DEB, 32183

Orbit data source: Space-Track

FENGYUN 1C DEB, 32183 is space debris in SSO originally from a launch on Mon, 10 May 1999 UTC launched from the Taiyaun Space Center, China (TSC). Fengyun 1C debris stems from the Chinese weather satellite Fengyun-1C, which was intentionally destroyed by a Chinese anti-satellite missile in 2007. This event dramatically increased the amount of space debris, with thousands of trackable fragments posing hazards to satellites and human spaceflight. The Fengyun 1C debris cloud has become a focal point in discussions about space sustainability and the need for international regulations to prevent the creation of new debris.

Loading next visibility...
Identifier
32183, 1999-025CUD
Orbit
SSO
Country
Flag of CNCN / PRC
Related business
Manufacturer
Unknown
Mission
Spacecraft
Bus & Motor
Unknown
Mass
Unknown
Launch date (UTC)
1999-05-10 (27 years ago)
Launch vehicle
Unknown
Launch site
Taiyaun Space Center, China (TSC)
Object type
Payload
Rocket body
Debris
Shape & HBR
Unknown shape, 0.1 m
Radar Cross Section
Small (<0.1 m²)

Expand to show TLE details & history
Last TLE update: 2 days ago

TLE from 2 days ago
0 FENGYUN 1C DEB
1 32183U 99025CUD 25352.40503136  .00000934  00000-0  54812-3 0  9990
2 32183  98.7124  43.4290 0042537  45.0938 315.3673 14.10098698728441
Epoch: 2025-12-18T09:43Z
TLE epoch observation values (Epoch: 2025-12-18T09:43:14.709Z)
Latitude
0.00001°
Longitude
170.3567°
Altitude
840.088 km
Speed
7.444 km/s
True Right ascension
02h 53m 42s
True Declination
0° 00' 00"
Sunlit
Object was in full shadow at epoch
Visualization orbit readout
Latitude
Unknown
Longitude
Unknown
Altitude
Unknown
Speed
Unknown
Apparent Right ascension
Unknown
Apparent Declination
Unknown
Sunlit
N/A
Visualization observer readout
Local Sidereal Time
01:09:57
Azimuth
Unknown
Elevation
Unknown
Doppler factor
Unknown
Orbital elements
Apogee altitude
886.979 km
Perigee altitude
825.433 km
Semi-major axis
7,234.343 km
Eccentricity
0.00425
Inclination
98.7124°
RAAN
43.429°
Arg. of periapsis
45.0938°
True anomaly
315.02355°
Mean anomaly
315.3673°
Eccentric anomaly
315.19555°
Mean motion
3.52732 °/min
Orbital period
102.06 mins
BSTAR
0.00054812
Loading maneuver chart data...
Computing Atmospheric mass density...

Documentation

Showing up to 5 results
|